Location: Newark
(0.4500°S, 90.2667°W)
Time: 17:11:13
(UTC+00:00)

LightSail 2 - Visible Passes

Search period start: 12 December 2019 00:00
Search period end: 22 December 2019 00:00
Orbit: 696 x 730 km, 24.0° (Epoch: 12 December)

Date Brightness Start Highest point End Pass type
(mag) Time Alt. Az. Time Alt. Az. Time Alt. Az.
12 Dec 6.4 01:15:18 10° NNW 01:18:52 23° NNE 01:18:52 23° NNE visible
13 Dec 6.8 00:17:49 10° NNW 00:21:09 17° NNE 00:24:28 10° ENE visible
13 Dec 6.7 02:01:47 10° NW 02:04:09 27° NW 02:04:09 27° NW visible
14 Dec 5.6 01:03:52 10° NW 01:08:43 41° NNE 01:10:32 30° ENE visible
14 Dec 8.0 02:49:16 10° W 02:49:34 12° W 02:49:34 12° W visible
15 Dec 5.2 01:50:57 10° WNW 01:56:02 75° SW 01:56:02 75° SW visible
15 Dec 7.8 10:45:26 10° SSW 10:48:18 15° SSE 10:51:10 10° SE visible
16 Dec 5.1 00:52:47 10° WNW 00:57:59 75° NNE 01:02:34 13° ESE visible
16 Dec 7.3 02:39:05 10° W 02:41:37 23° WSW 02:41:37 23° WSW visible
16 Dec 8.0 09:48:43 10° S 09:49:59 11° SSE 09:51:15 10° SSE visible
17 Dec 6.2 01:40:29 10° W 01:45:21 41° SSW 01:48:09 22° SSE visible
17 Dec 7.2 10:33:36 10° SSW 10:37:43 24° SSE 10:41:49 10° ESE visible
18 Dec 5.7 00:42:03 10° WNW 00:47:11 60° SSW 00:52:17 10° SE visible
18 Dec 7.5 02:29:29 10° WSW 02:32:53 18° SSW 02:33:40 17° S visible
18 Dec 7.5 09:37:16 14° S 09:39:29 18° SSE 09:42:51 10° ESE visible
18 Dec 5.6 11:20:08 10° SW 11:25:08 62° SSE 11:30:12 10° ENE visible
19 Dec 7.2 01:30:27 10° WSW 01:34:38 24° SSW 01:38:48 10° SSE visible
19 Dec 6.2 10:22:42 13° SW 10:27:00 42° SSE 10:31:47 10° E visible
20 Dec 6.8 00:31:42 10° W 00:36:24 34° SSW 00:41:05 10° SE visible
20 Dec 8.0 02:21:02 10° SSW 02:22:21 11° SSW 02:23:41 10° S visible
20 Dec 6.8 09:29:12 29° SSE 09:29:12 29° SSE 09:33:12 10° E visible
20 Dec 5.1 11:09:18 10° WSW 11:14:20 72° NNW 11:19:25 10° ENE visible
21 Dec 7.8 01:21:04 10° SW 01:23:59 15° SSW 01:26:55 10° SSE visible
21 Dec 5.1 10:14:45 47° SW 10:16:12 78° SSE 10:21:16 10° ENE visible
